CHINASAT 9 (ZX 9)

Last updated on Jan. 26, 2020, 4:40 a.m. UTC

1 33051U 08028A   20025.71814892 -.00000255  00000-0  00000+0 0  9991
2 33051   0.0151 103.3246 0004498 216.7507 155.1473  1.00271162 42601
UTC
Height (km)
Latitude
Longitude
Inclination
Orbital Period
UTC large
Height (km)
Speed (km/s)
/
Latitude / Longitude
Inclination (degrees)
Orbital Period (minutes)
Azimuth
Elevation
Range (km)
Doppler Factor
iOS Compass Heading
iOS Angle

Next 30 passes for location: Hong Kong

Rise time Rise Azimuth (degrees) Set time Set Azimuth (degrees) Duration Max altitude (degrees)

No matching passes for this satellites